Location: Kermapucano
(48.0667°N, 3.3000°W)
Time: 19:04:44
(UTC+00:00)

COSMO-SKYMED 1 - Pass Details

Date: 29 November 2020
Orbit: 621 x 623 km, 97.9° (Epoch: 27 January)

Event Time Altitude Azimuth Distance (km) Brightness Sun altitude
Rises 04:58:48 0° 155° (SSE) 2,892 6.4 -26.2°
Reaches altitude 10° 05:01:00 10° 151° (SSE) 1,990 5.5 -25.8°
Maximum altitude 05:05:15 59° 72° (ENE) 723 3.0 -25.1°
Enters shadow 05:06:55 35° 8° (N) 1,025 3.6 -24.8°
